Weather History for Milwaukee, WI

Change the Weather History Date:

Wednesday, February 13, 2013

  Actual Average Record
Temperature  
Mean Temperature 31 °F 25 °F  
Max Temperature 41 °F 32 °F 58 °F (1882)
Min Temperature 21 °F 19 °F -18 °F (1905)
Degree Days  
Heating Degree Days 34 40  
Month to date heating degree days 564 533  
Since 1 July heating degree days 4149 4418  
Cooling Degree Days 0 0  
Month to date cooling degree days 0 0  
Year to date cooling degree days 0 0  
Moisture  
Dew Point 24 °F    
Average Humidity 76    
Maximum Humidity 92    
Minimum Humidity 59    
Precipitation  
Precipitation 0.00 in 0.06 in 0.65 in (1906)
Month to date precipitation 1.29 0.71  
Year to date precipitation 4.46 2.47  
Snow  
Snow 0.00 in 0.30 in 6.50 in (2007)
Month to date snowfall 10.1 4.7  
Since 1 July snowfall 21.5 32.7  
Snow Depth 1.00 in    
Sea Level Pressure  
Sea Level Pressure 29.77 in    
Wind  
Wind Speed 7 mph (SW)    
Max Wind Speed 15 mph    
Max Gust Speed 20 mph    
Visibility 8 miles    
Events      
T = Trace of Precipitation, MM = Missing Value Source: NWS Daily Summary

Daily Weather History Graph

Daily Weather History Graph

Search for Another Location

Airport:

Trip Planner

Search our weather history database for the weather conditions in past years. The results will help you decide how hot, cold, wet, or windy it might be!

Date:

Astronomy

Feb. 13, 2013 Rise Set
Actual Time 6:51 AM CST 5:20 PM CST
Civil Twilight 6:22 AM CST 5:49 PM CST
Nautical Twilight 5:49 AM CST 6:23 PM CST
Astronomical Twilight 5:16 AM CST 6:56 PM CST
Moon 8:13 AM CST (2/13) 9:31 PM CST (2/13)
Length of Visible Light 11h 27m
Length of Day
10h 29m
Waxing Crescent, 14% of the Moon is Illuminated
Feb 13
Waxing Crescent
Feb 17
First Quarter
Feb 25
Full
Mar 4
Last Quarter
Mar 11
New

Hourly Weather History & Observations

Time (CST) Temp. Windchill Dew Point Humidity Pressure Visibility Wind Dir Wind Speed Gust Speed Precip Events Conditions
12:52 AM 23.0 °F 13.9 °F 19.0 °F 85% 29.89 in 8.0 mi SW 8.1 mph - N/A   Clear
1:52 AM 21.9 °F 13.4 °F 19.0 °F 89% 29.88 in 8.0 mi SW 6.9 mph - N/A   Clear
2:52 AM 21.9 °F 17.2 °F 19.0 °F 89% 29.85 in 9.0 mi SSW 3.5 mph - N/A   Clear
3:52 AM 21.9 °F 14.5 °F 19.0 °F 89% 29.83 in 8.0 mi SSW 5.8 mph - N/A   Clear
4:52 AM 21.0 °F 13.4 °F 18.0 °F 88% 29.82 in 8.0 mi SSW 5.8 mph - N/A   Clear
5:52 AM 21.0 °F - 19.0 °F 92% 29.81 in 7.0 mi Calm Calm - N/A   Clear
6:52 AM 21.0 °F 14.6 °F 19.0 °F 92% 29.80 in 5.0 mi South 4.6 mph - N/A   Partly Cloudy
7:52 AM 21.9 °F 14.5 °F 19.9 °F 92% 29.80 in 5.0 mi SSW 5.8 mph - N/A   Clear
8:52 AM 26.1 °F 16.2 °F 21.9 °F 84% 29.80 in 4.0 mi SW 10.4 mph - N/A   Partly Cloudy
9:52 AM 28.9 °F 19.8 °F 24.1 °F 82% 29.78 in 5.0 mi SW 10.4 mph - N/A   Haze
10:52 AM 33.1 °F 25.5 °F 26.1 °F 75% 29.78 in 7.0 mi SW 9.2 mph - N/A   Scattered Clouds
11:52 AM 36.0 °F 28.5 °F 27.0 °F 70% 29.76 in 7.0 mi SW 10.4 mph - N/A   Mostly Cloudy
12:52 PM 39.0 °F 33.4 °F 26.1 °F 60% 29.74 in 10.0 mi WSW 8.1 mph - N/A   Mostly Cloudy
1:52 PM 39.9 °F 32.1 °F 26.1 °F 58% 29.72 in 10.0 mi WSW 13.8 mph - N/A   Mostly Cloudy
2:52 PM 39.0 °F 31.8 °F 26.1 °F 60% 29.72 in 10.0 mi WSW 11.5 mph - N/A   Mostly Cloudy
3:52 PM 39.9 °F 32.9 °F 26.1 °F 58% 29.73 in 10.0 mi WSW 11.5 mph 19.6 mph N/A   Mostly Cloudy
4:52 PM 39.0 °F 32.8 °F 27.0 °F 62% 29.73 in 8.0 mi WSW 9.2 mph - N/A   Mostly Cloudy
5:52 PM 36.0 °F 31.1 °F 27.0 °F 70% 29.74 in 9.0 mi SW 5.8 mph - N/A   Scattered Clouds
6:52 PM 35.1 °F 29.3 °F 27.0 °F 72% 29.75 in 9.0 mi WSW 6.9 mph - N/A   Partly Cloudy
7:52 PM 34.0 °F 28.0 °F 27.0 °F 75% 29.75 in 9.0 mi West 6.9 mph - N/A   Partly Cloudy
8:52 PM 33.1 °F 27.7 °F 27.0 °F 78% 29.75 in 10.0 mi WSW 5.8 mph - N/A   Mostly Cloudy
9:52 PM 33.1 °F 28.7 °F 27.0 °F 78% 29.74 in 10.0 mi WSW 4.6 mph - N/A   Overcast
10:52 PM 34.0 °F 29.8 °F 28.0 °F 79% 29.73 in 10.0 mi WSW 4.6 mph - N/A   Mostly Cloudy
11:52 PM 33.1 °F 30.0 °F 28.0 °F 82% 29.72 in 10.0 mi SSW 3.5 mph - N/A   Overcast